Zurück zum Katalog

SL-12 DEB

LostHEO
NORAD 27963·DEBRIS·🇷🇺 Russia

Gestartet Sep 16, 1987 von Baikonur Cosmodrome

Loading…

Nächste Überflüge (nächste 24 Stunden)

TLE

VeraltetSource: Space-Track

Epoche: Dec 21, 2004, 22:07 UTC

1 27963U 87079BC  04356.92171407 +.00045624 +00000-0 +16095+0 0  9998
2 27963 065.5438 294.5246 5425081 053.6933 351.9882 04.63645621025433

Verfolge SL-12 DEB in Echtzeit mit AllMySat

Download on the App Store